This is the latest recevied weather packets stored in our database for station/object OM5ZU-10. If no packets are shown the sender has not sent any weather packets the latest 10 day(s).
| Time | Temp. | Humidity | Pressure | Rain* | Wind** | Luminosity | Snow |
|---|---|---|---|---|---|---|---|
| 1787843664 | 30.56° C | 41% | 1016.9 hPa | - | - | - | - |
| 1787842764 | 31.11° C | 41% | 1016.7 hPa | - | - | - | - |
| 1787841864 | 30° C | 41% | 1016.7 hPa | - | - | - | - |
| 1787840963 | 29.44° C | 43% | 1017 hPa | - | - | - | - |
| 1787840063 | 30° C | 41% | 1017.1 hPa | - | - | - | - |
| 1787839163 | 30.56° C | 43% | 1017.3 hPa | - | - | - | - |
| 1787838263 | 28.33° C | 43% | 1017.4 hPa | - | - | - | - |
| 1787837363 | 28.33° C | 44% | 1017.3 hPa | - | - | - | - |
| 1787836463 | 30.56° C | 43% | 1017.5 hPa | - | - | - | - |
| 1787835563 | 28.33° C | 44% | 1017.5 hPa | - | - | - | - |
| 1787834662 | 28.89° C | 43% | 1017.4 hPa | - | - | - | - |
| 1787833762 | 28.33° C | 43% | 1017.6 hPa | - | - | - | - |
| 1787832862 | 28.89° C | 44% | 1017.8 hPa | - | - | - | - |
| 1787831962 | 27.78° C | 45% | 1017.9 hPa | - | - | - | - |
| 1787831062 | 27.78° C | 45% | 1018 hPa | - | - | - | - |
| 1787830162 | 28.33° C | 46% | 1018.1 hPa | - | - | - | - |
| 1787829261 | 27.22° C | 45% | 1018.2 hPa | - | - | - | - |
| 1787828361 | 28.33° C | 43% | 1018.3 hPa | - | - | - | - |
| 1787827461 | 27.78° C | 46% | 1018.4 hPa | - | - | - | - |
| 1787826561 | 27.78° C | 45% | 1018.4 hPa | - | - | - | - |
| 1787825661 | 27.78° C | 46% | 1018.5 hPa | - | - | - | - |
| 1787824761 | 27.78° C | 45% | 1018.6 hPa | - | - | - | - |
| 1787823860 | 27.78° C | 47% | 1018.8 hPa | - | - | - | - |
| 1787822960 | 25.56° C | 52% | 1018.8 hPa | - | - | - | - |
| 1787822060 | 24.44° C | 52% | 1018.8 hPa | - | - | - | - |
* Rain since midnight (hover to see other rain measurements)
** Current wind speed in m/s (hover to see current wind gust speed)